Location: Lachepaillet
(43.4918°N, 1.4874°W)
Time: 23:39:56
(UTC+00:00)

Cosmos 2278 - Pass Details

Date: 15 May 2026
Orbit: 837 x 852 km, 71.1° (Epoch: 11 June)

Event Time Altitude Azimuth Distance (km) Brightness Sun altitude
Rises 21:01:14 0° 337° (NNW) 3,429 8.2 -15.0°
Reaches altitude 10° 21:03:45 10° 342° (NNW) 2,489 7.2 -15.3°
Maximum altitude 21:09:24 60° 62° (ENE) 975 3.9 -16.0°
Enters shadow 21:12:35 26° 133° (SE) 1,616 4.6 -16.4°
